Location: Iesi
(43.5167°N, 13.2333°E)
Time: 19:22:06
(UTC+00:00)

Cosmos 1656 - Pass Details

Date: 08 August 2020
Orbit: 798 x 849 km, 71.1° (Epoch: 24 September)

Event Time Altitude Azimuth Distance (km) Brightness Sun altitude
Rises 19:20:48 0° 335° (NNW) 3,327 7.9 -10.5°
Reaches altitude 10° 19:23:13 10° 336° (NNW) 2,398 7.0 -10.9°
Maximum altitude 19:28:43 84° 65° (ENE) 825 3.6 -11.7°
Enters shadow 19:33:40 13° 154° (SSE) 2,193 5.3 -12.4°
